User: anonymous   Login
Location: Wayah Bald
(35.1806°N, 83.5603°W)
Time: 17:19:03
(UTC-04:00)
Language:

Meteor 1-27 Rocket - Orbit

View from above orbital plane
View from above orbital plane
View from above satellite
View from above satellite

Ground track
Ground track

The orbit data is extracted from the following two-line orbital elements,

1  9904U 77024B   18147.11818266 +.00000054 +00000-0 +24210-4 0  9998
2  9904 081.2596 157.5121 0055890 079.4488 281.2970 14.06858854110936
Epoch (UTC): 27 May 2018 02:50:10
Eccentricity: 0.0055890
inclination: 81.2596°
perigee height: 829 km
apogee height: 910 km
right ascension of ascending node: 157.5121°
argument of perigee: 79.4488°
revolutions per day: 14.06858854
mean anomaly at epoch: 281.2970°
orbit number at epoch: 11093

The dashed part of the orbit path shows where the satellite is in the earth's shadow,  

DLR